COMPLETED DISPATCHED CALLS FOR SERVICE

Welcome to the Jacksonville Sheriff’s Office Completed Dispatched Calls for Service webpage. This page displays calls for service made to the Jacksonville Sheriff's Office that have recently been completed. The data on this page is refreshed automatically.

This information is not intended to be used as official crime data. This program does not provide information about all crimes, and excludes specific incidents such as sexual assaults and child abuse.

Disclaimer: The Jacksonville Sheriff's Office makes every effort to produce and publish current and accurate information. No warranties, expressed or implied, are provided for the data herein, its use, or its interpretation. The services provided are for informational purposes only and should not be relied on for any type of legal action.

Last refreshed 8/22 06:51:34

Incident # Dispatched Block Address Signal Call Description  
170822569256 8-22 06:37 8000 SOUTHSIDE BLVD 96 ASSIST MOTORIST
170822569253 8-22 06:35 2000 CASSAT 1050 TRAFFIC STOP
170822569212 8-22 06:35 4100 PHILIPS HWY 63 DISPUTE
170822569252 8-22 06:34 WINTON DR AND W MONCRIEF RD 1050 TRAFFIC STOP
170822569246 8-22 06:31 ZOO PKWY AND EASTPORT RD 16 ROAD OBSTRUCTION
170822569242 8-22 06:25 W 23RD ST AND SILVER ST 1050 TRAFFIC STOP
170822569233 8-22 06:18 6600 ARGYLE FOREST BLVD 76 ASSIST OTHER AGENCY
170822569225 8-22 06:14 BULL/PRITCH 1050 TRAFFIC STOP
170822569183 8-22 06:11 1700 W BEAVER ST 4 AUTO CRASH
170822569219 8-22 06:11 7500 SOUTHSIDE BLVD 13 SUSPICIOUS PERSON
170822569207 8-22 06:08 10800 HARTS RD 13 SUSPICIOUS PERSON
170822569217 8-22 06:08 SOUT/NEW KINGS 13 SUSPICIOUS PERSON
170822569202 8-22 06:02 4200 PHILIPS HWY 1050 TRAFFIC STOP
170822569191 8-22 05:53 S I295 EXPWY AND ALTA DR 1050 TRAFFIC STOP
170822569187 8-22 05:49 S I95 EXPWY AND OLD ST AUGUSTINE RD 16 ROAD OBSTRUCTION
170822569188 8-22 05:48 N I95 EXPWY AND DUNN AVE 1050 TRAFFIC STOP
170822569182 8-22 05:41 8800 S OLD KINGS RD 13 SUSPICIOUS PERSON
170822569168 8-22 05:39 7500 ROLLING HILLS DR 22 DOMESTIC
170822569179 8-22 05:36 CARN/EDGE 1050 TRAFFIC STOP
170822569169 8-22 05:31 CHERRY POINT WAY AND HARTS RD 13 SUSPICIOUS PERSON
170822569175 8-22 05:29 4600 KINGSBURY ST 76 ASSIST OTHER AGENCY
170822569160 8-22 05:28 11600 CARSON LAKE DR 13 SUSPICIOUS PERSON
170822569173 8-22 05:27 BAYMEADOWS RD AND PHILIPS HWY 1050 TRAFFIC STOP
170822569171 8-22 05:23 S I295 EXPWY AND S I95 EXPWY 16 ROAD OBSTRUCTION
170822569166 8-22 05:13 3200 PHILIPS HWY 13 SUSPICIOUS PERSON
170822569165 8-22 05:12 W UNIVERSITY BLVD AND POWERS AVE 96 ASSIST MOTORIST
170822569158 8-22 04:53 1400 UNIVERSITY 13 SUSPICIOUS PERSON
170822569155 8-22 04:48 1200 LABELLE ST 63 DISPUTE
170822569153 8-22 04:47 2700 SILVER ST 63 DISPUTE
170822569151 8-22 04:46 103RD ST AND MONROE SMITH RD 13 SUSPICIOUS PERSON
170822569150 8-22 04:40 N I295 EXPWY AND COLLINS RD 1050 TRAFFIC STOP
170822569147 8-22 04:37 8500 ARGYLE FOREST BLVD 13 SUSPICIOUS PERSON
170822569132 8-22 04:25 700 TREKKER ST 20 PROWLER
170822569142 8-22 04:25 2900 MANSION RD 64 NOISE COMPLAINT
170822569140 8-22 04:22 N I295 EXPWY AND N I95 EXPWY 16 ROAD OBSTRUCTION
170822569136 8-22 04:20 N I295 EXPWY 16 ROAD OBSTRUCTION
170822569126 8-22 04:17 7700 INDIA AVE 1066 CANCEL
170822569125 8-22 04:17 1700 BARTRAM RD 2 22 DOMESTIC DISTURBANCE
170822569123 8-22 04:07 100 N PEARL ST 63 DISPUTE
170822569113 8-22 04:07 3900 ROSETREE DR 13 SUSPICIOUS PERSON
170822569118 8-22 04:05 11300 N MAIN ST 27 MENTALLY ILL PERSON
170822569121 8-22 04:02 14200 SATINWOOD DR 21RJ BURGLARY RESIDENCE JUST OCCURRED
170822569117 8-22 04:00 5500 CONNIE JEAN RD 63 DISPUTE
170822569115 8-22 03:57 7300 NEW KINGS RD 96 ASSIST MOTORIST
170822569109 8-22 03:51 CASSAT AVE AND SAN JUAN AVE 1050 TRAFFIC STOP
170822569106 8-22 03:50 6500 NORMANDY BLVD 76 ASSIST OTHER AGENCY
170822569104 8-22 03:47 900 W ADAMS ST 63 DISPUTE
170822569047 8-22 03:44 500 LANE AVE 22 DOMESTIC
170822569076 8-22 03:44 3500 GRANT OWENS RD 27 MENTALLY ILL PERSON
170822569099 8-22 03:33 900 S EDGEWOOD AVE 13 SUSPICIOUS PERSON
170822569095 8-22 03:31 100 N DAMES POINT BRG 16 ROAD OBSTRUCTION
170822569094 8-22 03:24 6700 COLLINS RD 63 DISPUTE
170822569091 8-22 03:19 W STATE ST AND N PEARL ST 76 ASSIST OTHER AGENCY
170822569081 8-22 03:08 4500 SHIRLEY AVE 1 IMPAIRED/DRUNK DRIVER
170822569078 8-22 03:05 10800 HARTS RD 56 JUVENILE COMPLAINT
170822569054 8-22 03:05 2800 SOPHIA ST 22 DOMESTIC
170822569079 8-22 03:04 N I95 EXPWY AND LEM TURNER RD 96 ASSIST MOTORIST
170822569075 8-22 03:03 7600 N MELISSA CT 1066 CANCEL
170822569064 8-22 03:00 3900 ROSETREE DR 63 DISPUTE
170822569074 8-22 02:59 3500 UNIVERSITY BLVD 76 ASSIST OTHER AGENCY
170822569073 8-22 02:57 2000 LOGGING LN 3388 DISCHARGING FIREARM AT PERSON
170822569070 8-22 02:56 10000 BELLE RIVE BLVD 21C BURGLARY CONVEYANCE
170822569069 8-22 02:54 8300 DIX ELLIS TRL 10J VEHICLE THEFT JUST OCCURRED
170822569068 8-22 02:52 WILSON BLVD AND JAMMES RD 1050 TRAFFIC STOP
170822569066 8-22 02:50 1300 IONIA ST 0 63 ARMED DISPUTE
170822569065 8-22 02:49 S I95 EXPWY AND W EDGEWOOD AVE 1050 TRAFFIC STOP
170822569060 8-22 02:45 FT CAROLINE RD AND ROGERO RD 13 SUSPICIOUS PERSON
170822569058 8-22 02:40 8000 MERRILL RD 1050 TRAFFIC STOP
170822569055 8-22 02:38 2300 PHILIPS HWY 76 ASSIST OTHER AGENCY
170822569056 8-22 02:38 W ASHLEY ST AND N LAURA ST 1050 TRAFFIC STOP
170822569052 8-22 02:37 9700 DEER LAKE CT 2 63 DISPUTE IMPAIRED/INTOXICATED
170822569053 8-22 02:37 MARTIN LUTHER KING JR PKWY AND BOULEVARD 1050 TRAFFIC STOP
170822569051 8-22 02:35 3100 OVERHILL 33 DISCHARGING OF FIREARM
170822569034 8-22 02:33 5200 COLLINS RD 13 SUSPICIOUS PERSON
170822569050 8-22 02:32 5100 PHILIPS HWY 73 DRUG INVESTIGATION
170822569049 8-22 02:31 2900 DUNN AVE 1050 TRAFFIC STOP
170822569037 8-22 02:21 HARTS RD AND DUNN AVE 1050 TRAFFIC STOP
170822569033 8-22 02:19 1900 WILSON ST 2 63 DISPUTE IMPAIRED/INTOXICATED
170822569035 8-22 02:15 TOLEDO RD AND S OLD KINGS RD 1050 TRAFFIC STOP
170822569032 8-22 02:12 BAYMEADOWS RD AND PHILIPS HWY 1050 TRAFFIC STOP
170822569028 8-22 02:10 700 N MAIN 23I ROBBERY INDIVIDUAL
170822569026 8-22 02:08 1300 KINGS RD 49 REPORT TO HOSPITAL
170822569024 8-22 02:08 6700 DUNN AVE 13 SUSPICIOUS PERSON
170822568967 8-22 02:05 2200 COURTNEY DR 64 NOISE COMPLAINT
170822569019 8-22 02:03 S LANE AVE AND PARK ST 1050 TRAFFIC STOP
170822569016 8-22 02:03 100 E MATHEWS BRG 13 SUSPICIOUS PERSON
170822569015 8-22 02:01 8400 BLANDING BLVD 63 DISPUTE
170822569014 8-22 02:00 8200 DIX ELLIS TRL 1050 TRAFFIC STOP
170822569009 8-22 01:55 4700 RIVER CITY DR 1066 CANCEL
170822569004 8-22 01:49 103RD ST AND VALDURA AVE 13 SUSPICIOUS PERSON
170822569000 8-22 01:48 600 N LIBERTY ST 76 ASSIST OTHER AGENCY
170822568972 8-22 01:43 10600 DEERWOOD PARK BLVD 63 DISPUTE
170822568996 8-22 01:43 S I295 EXPWY AND NORMANDY BLVD 96 ASSIST MOTORIST
170822568994 8-22 01:40 BRANNON AVE AND 103RD ST 13 SUSPICIOUS PERSON
170822568993 8-22 01:36 11100 NURSERY FIELDS DR 50 FOUND/ABANDONED PROPERTY
170822568991 8-22 01:36 8400 N HELEN DR 2288 DOMESTIC DISPUTE WITH/ASSAULT
170822568988 8-22 01:34 8600 FELDMAN RD 2 22 DOMESTIC DISTURBANCE
170822568986 8-22 01:32 N MARKET ST AND E ASHLEY ST 13 SUSPICIOUS PERSON
170822568980 8-22 01:31 S MC DUFF AVE AND ROOSEVELT BLVD 64 NOISE COMPLAINT
170822568982 8-22 01:28 1600 S SAN PABLO RD 13 SUSPICIOUS PERSON
170822568966 8-22 01:27 5600 N SOPHIST CIR 13 SUSPICIOUS PERSON
170822568978 8-22 01:26 3500 UNIVERSITY BLVD 76 ASSIST OTHER AGENCY
170822568974 8-22 01:25 1900 ERLINE DR 0 88P ARMED ASSAULT IN PROGRESS
170822568977 8-22 01:24 3000 DUNN AVE 13 SUSPICIOUS PERSON
170822568973 8-22 01:23 N MAIN ST AND W 8TH ST 1050 TRAFFIC STOP
170822568970 8-22 01:21 BUTTERCUP ST AND BRANNON AVE 13 SUSPICIOUS PERSON
170822568969 8-22 01:21 10900 BEACH BLVD 1050 TRAFFIC STOP
170822568927 8-22 01:15 7000 OAKWOOD DR 63 DISPUTE
170822568962 8-22 01:14 1000 BROWARD RD 60 SUICIDE OR ATTEMPT
170822568946 8-22 01:12 6100 E FORDHAM CIR 22 DOMESTIC
170822568958 8-22 01:11 400 W 24TH ST 50 FOUND/ABANDONED PROPERTY
170822568955 8-22 01:08 3900 MAPLE VIEW DR 13 SUSPICIOUS PERSON
170822568939 8-22 01:06 500 LANE AVE 22 DOMESTIC
170822568954 8-22 01:05 600 N PEARL ST 1 IMPAIRED/DRUNK DRIVER
170822568908 8-22 01:01 3100 EMERSON ST 63 DISPUTE
170822568950 8-22 01:00 S UNIVERSITY BLVD AND BEACH BLVD 1050 TRAFFIC STOP
170822568949 8-22 00:59 12100 LEM TURNER RD 1050 TRAFFIC STOP
170822568945 8-22 00:57 1600 STARRATT RD 1050 TRAFFIC STOP
170822568920 8-22 00:56 2400 ELLINGTON AVE 9 THEFT
170822568943 8-22 00:54 600 STOCKTON ST 1 IMPAIRED/DRUNK DRIVER
170822568940 8-22 00:52 400 S MC DUFF AVE 0 23BJ ARMED ROBBERY BUSINESS JUST OCCURRED
170822568937 8-22 00:52 2400 CLEMSON RD 1066 CANCEL
170822568918 8-22 00:52 8800 103RD ST 2 63 DISPUTE IMPAIRED/INTOXICATED
170822568933 8-22 00:47 13700 ATLANTIC BLVD 38 TRAFFIC ASSIGNMENT
170822568928 8-22 00:46 3200 UNIVERSITY BLVD 2 22 DOMESTIC DISTURBANCE
170822568931 8-22 00:45 S I295 EXPWY AND MONUMENT RD 1050 TRAFFIC STOP
170822568925 8-22 00:43 1600 S SAN PABLO RD 63 DISPUTE
170822568923 8-22 00:43 1400 W 15TH ST 20 PROWLER
170822568926 8-22 00:42 S BARNES RD AND W UNIVERSITY BLVD 1050 TRAFFIC STOP
170822568919 8-22 00:41 8700 SOUTHSIDE BLVD 33 DISCHARGING OF FIREARM
170822568917 8-22 00:39 3100 PHILIPS HWY 10 VEHICLE THEFT
170822568915 8-22 00:38 2500 JAMMES RD 10R VEHICLE THEFT RECOVERY
170822568914 8-22 00:37 100 E MATHEWS BRG 13 SUSPICIOUS PERSON
170822568909 8-22 00:34 W I10 EXPWY AND S CHAFFEE RD 4 53 TRAFFIC CRASH PERSON INJURED
170822568886 8-22 00:34 7800 E BAYMEADOWS RD 64 NOISE COMPLAINT
170822568905 8-22 00:33 5400 DUKE RD 22 DOMESTIC
170822568903 8-22 00:27 6900 E LENOIR AVE 1066 CANCEL
170822568902 8-22 00:26 11000 BEACH BLVD 76 ASSIST OTHER AGENCY
170822568876 8-22 00:24 2500 JAMMES RD 63 DISPUTE
170822568897 8-22 00:22 15200 MAX LEGGETT PKWY 1050 TRAFFIC STOP
170822568888 8-22 00:21 100 E UNION ST 63 DISPUTE
170822568894 8-22 00:20 NORWOOD AVE AND CARLTON ST 16 ROAD OBSTRUCTION
170822568889 8-22 00:15 1400 DUNN 13 SUSPICIOUS PERSON
170822568884 8-22 00:13 5100 DONCASTER AVE 33 DISCHARGING OF FIREARM
170821568866 8-22 00:10 1600 W 45TH ST 37 UNVERIFIED 911 CALL
170822568882 8-22 00:08 1200 LABELLE ST 22 DOMESTIC
170821568842 8-22 00:08 7700 SOUTHSIDE BLVD 64 NOISE COMPLAINT
170822568883 8-22 00:07 4700 HODGES BLVD 13 SUSPICIOUS PERSON
170822568880 8-22 00:06 ATLANTIC BLVD AND UNIVERSITY BLVD 1050 TRAFFIC STOP
170822568870 8-22 00:06 8200 WINDYPINE LN 0 22 DOMESTIC DISTURBANCE W/WEAPON
170822568879 8-22 00:05 1500 MONUMENT RD 22 DOMESTIC
170821568867 8-22 00:03 3500 W UNIVERSITY BLVD 22 DOMESTIC
170822568875 8-22 00:03 600 N SUMMER BREEZE DR 13 SUSPICIOUS PERSON
170821568869 8-21 23:59 95/GOLFAIR 96 ASSIST MOTORIST
170821568854 8-21 23:59 7800 POINT MEADOWS DR 63 DISPUTE
170821568853 8-21 23:59 9000 NORMANDY BLVD 63 DISPUTE
170821568864 8-21 23:57 1400 GRANDVIEW DR 14 VANDALISM
170821568860 8-21 23:57 2000 COMMONWEALTH AVE 33 DISCHARGING OF FIREARM
170821568856 8-21 23:55 5300 MISSOURI AVE 2 63 DISPUTE IMPAIRED/INTOXICATED
170821568858 8-21 23:55 1400 DUNN AVE 1050 TRAFFIC STOP
170821568849 8-21 23:53 9100 4TH AVE 63 DISPUTE
170821568851 8-21 23:52 7200 LEM TURNER RD 13 SUSPICIOUS PERSON
170821568812 8-21 23:51 6200 PICKETTVILLE RD 2 63 DISPUTE IMPAIRED/INTOXICATED
170821568718 8-21 23:50 300 N LAURA ST 49 REPORT TO HOSPITAL
170821568852 8-21 23:50 2500 RIVERSIDE AVE 27 MENTALLY ILL PERSON
170821568850 8-21 23:47 W 24TH ST AND PERRY ST 1050 TRAFFIC STOP
170821568847 8-21 23:46 BLANDING BLVD AND ARGYLE FOREST BLVD 76 ASSIST OTHER AGENCY
170821568846 8-21 23:45 SRA1A HWY AND WONDERWOOD DR 1050 TRAFFIC STOP
170821568844 8-21 23:44 NORWOOD AVE AND CRESTWOOD ST 1050 TRAFFIC STOP
170821568841 8-21 23:42 4000 S KERNAN BLVD 1050 TRAFFIC STOP
170821568750 8-21 23:41 8400 BUTTERCUP ST 5388 ASSAULT INVOLVING INJURY
170821568824 8-21 23:37 9700 TOUCHTON RD 0 22 DOMESTIC DISTURBANCE W/WEAPON
170821568810 8-21 23:36 1100 PANGOLA DR 33 DISCHARGING OF FIREARM
170821568836 8-21 23:36 5200 POTOMAC AVE 3388 DISCHARGING FIREARM AT PERSON
170821568834 8-21 23:34 1300 W 24TH ST 21RP BURGLARY RESIDENCE IN PROGRESS
170821568827 8-21 23:32 2700 LENOX AVE 73 DRUG INVESTIGATION
170821568826 8-21 23:32 4200 W MONCRIEF RD 4 AUTO CRASH
170821568832 8-21 23:32 MONUMENT RD AND LEE RD 1050 TRAFFIC STOP
170821568825 8-21 23:30 1200 DUNN AVE 76 ASSIST OTHER AGENCY
170821568797 8-21 23:30 9300 E JAYBIRD CIR 95ID IDENTITY THEFT
170821568830 8-21 23:29 RUC/BRO 1050 TRAFFIC STOP
170821568829 8-21 23:29 ATLANTIC BLVD AND SCHOLARS WAY 1050 TRAFFIC STOP
170821568817 8-21 23:23 CLAIRE LN AND SAN JOSE BLVD 96 ASSIST MOTORIST
170821568815 8-21 23:23 600 CASSAT AVE 63 DISPUTE
170821568811 8-21 23:20 MANDARIN RD AND COUNTY DOCK RD 1 IMPAIRED/DRUNK DRIVER
170821568782 8-21 23:20 2500 JAMMES RD 22 DOMESTIC
170821568703 8-21 23:20 2500 N INTREPID LN 2288 DOMESTIC DISPUTE WITH/ASSAULT
170821568808 8-21 23:19 12700 BEACH BLVD 1050 TRAFFIC STOP
170821568807 8-21 23:19 TIMUQUANA RD AND BRENT ST 1050 TRAFFIC STOP
170821568787 8-21 23:18 2300 JERUSALEM ST 22 DOMESTIC
170821568800 8-21 23:17 W 19TH ST AND N MAIN ST 63 DISPUTE
170821568804 8-21 23:17 BROWARD RD AND BELLESHORE CIR 1050 TRAFFIC STOP
170821568801 8-21 23:17 6900 E LENOIR AVE 63 DISPUTE
170821568798 8-21 23:14 9100 GREENLEAF RD 22 DOMESTIC
170821568799 8-21 23:13 5900 RAMONA BLVD 23IJ ROBBERY INDIVIDUAL JUST OCCD
170821568788 8-21 23:08 8200 COLVILLE ST 64 NOISE COMPLAINT
170821568791 8-21 23:08 4100 SAN JUAN AVE 13 SUSPICIOUS PERSON
170821568770 8-21 23:07 6900 WILEY RD 27 MENTALLY ILL PERSON
170821568786 8-21 23:05 CLARK RD AND BROWARD RD 1050 TRAFFIC STOP
170821568784 8-21 23:04 GOLD/STAR 1050 TRAFFIC STOP
170821568780 8-21 23:00 1400 BROWARD RD 1050 TRAFFIC STOP
170821568775 8-21 23:00 8500 WESTERN WAY 96 ASSIST MOTORIST
170821568778 8-21 22:59 SHINDLER DR AND BELLROSE AVE 1050 TRAFFIC STOP
170821568774 8-21 22:59 W 28TH ST AND N MYRTLE AVE 1050 TRAFFIC STOP
170821568773 8-21 22:58 4700 COLLINS RD 1050 TRAFFIC STOP
170821568769 8-21 22:57 100 N DAMES POINT BRG 3 HIT AND RUN CRASH
170821568768 8-21 22:56 1100 NEW BERLIN RD. 1050 TRAFFIC STOP
170821568762 8-21 22:55 8100 103RD ST 76 ASSIST OTHER AGENCY
170821568712 8-21 22:54 3600 RING LN 22 DOMESTIC
170821568751 8-21 22:53 700 CRESTWOOD ST 9 THEFT
170821568755 8-21 22:51 5600 CALIFORNIA AVE 2288 DOMESTIC DISPUTE WITH/ASSAULT
170821568759 8-21 22:51 6400 ATLANTIC BLVD 1050 TRAFFIC STOP
170821568758 8-21 22:51 I295/LEM 1050 TRAFFIC STOP
170821568715 8-21 22:50 5800 W UNIVERSITY BLVD 21R BURGLARY RESIDENCE
170821568726 8-21 22:50 W UNIVERSITY BLVD AND POWERS AVE 3 HIT AND RUN CRASH
170821568752 8-21 22:50 N I295 EXPWY AND ZOO PKWY 3 HIT AND RUN CRASH
170821568753 8-21 22:49 BROWARD RD AND LEM TURNER RD 1050 TRAFFIC STOP
170821568709 8-21 22:49 100 N PEARL ST 63 DISPUTE
170821568747 8-21 22:47 100 N DAMES POINT BRG 16 ROAD OBSTRUCTION
170821568693 8-21 22:46 BRIDGEWATER CIR AND BEACH BLVD 22 DOMESTIC
170821568748 8-21 22:46 W 22ND ST AND PERRY ST 1050 TRAFFIC STOP
170821568694 8-21 22:45 E 11TH ST AND BUCKMAN ST 22 DOMESTIC
170821568745 8-21 22:43 ALUMNI DR AND S KERNAN BLVD 1050 TRAFFIC STOP
170821568744 8-21 22:43 N I295 EXPWY AND ROOSEVELT BLVD 1050 TRAFFIC STOP
170821568743 8-21 22:43 NORMANDY BLVD AND S LANE AVE 1050 TRAFFIC STOP
170821568742 8-21 22:42 11800 PULASKI RD 1050 TRAFFIC STOP
170821568741 8-21 22:42 27/MAIN 13 SUSPICIOUS PERSON
170821568738 8-21 22:41 MONC/27TH 1050 TRAFFIC STOP
170821568737 8-21 22:41 PHILIPS HWY AND EMERSON ST 73 DRUG INVESTIGATION
170821568736 8-21 22:41 CASSAT AVE AND KINGSBURY ST 1050 TRAFFIC STOP
170821568734 8-21 22:41 700 NEW BERLIN RD 1050 TRAFFIC STOP
170821568731 8-21 22:39 S EDGEWOOD AVE AND W BEAVER ST 13 SUSPICIOUS PERSON
170821568637 8-21 22:38 1500 OAK HAVEN RD 64 NOISE COMPLAINT
170821568729 8-21 22:37 7900 NORMANDY BLVD 63 DISPUTE
170821568714 8-21 22:37 6300 S LINDENWOOD CT 13 SUSPICIOUS PERSON
170821568725 8-21 22:37 W UNIVERSITY BLVD AND PHILIPS HWY 3 HIT AND RUN CRASH
170821568684 8-21 22:36 7500 ARLINGTON EXPWY 2288 DOMESTIC DISPUTE WITH/ASSAULT
170821568690 8-21 22:34 3000 E GERONA DR 64 NOISE COMPLAINT
170821568723 8-21 22:33 ROOSEVELT BLVD AND TIMUQUANA RD 16 ROAD OBSTRUCTION
170821568719 8-21 22:32 1900 ERLINE DR 0 63 ARMED DISPUTE
170821568721 8-21 22:31 200 S US 301 HWY 16 ROAD OBSTRUCTION
170821568692 8-21 22:30 1700 W 43RD ST 2288 DOMESTIC DISPUTE WITH/ASSAULT
170821568556 8-21 22:29 3200 DISCOVERY WAY 21CT BURGLARY CONVEYANCE TELESERVE
170821568717 8-21 22:28 E AIRPORT CENTER DR AND STARRATT RD 1050 TRAFFIC STOP
170821568635 8-21 22:28 2900 CORONET LN 27 MENTALLY ILL PERSON
170821568711 8-21 22:27 NORMANDY BLVD AND S LANE AVE 60 SUICIDE OR ATTEMPT
170821568716 8-21 22:26 UNIVERSITY BLVD AND ARLINGTON EXPWY 1050 TRAFFIC STOP
170821568574 8-21 22:24 8800 TAURUS ST 2288 DOMESTIC DISPUTE WITH/ASSAULT
170821568707 8-21 22:23 NEW BERLIN RD AND STARRATT RD 1050 TRAFFIC STOP
170821568705 8-21 22:22 DUNN AVE AND DUVAL RD 1050 TRAFFIC STOP
170821568699 8-21 22:21 8400 W GATE PKWY 63 DISPUTE
170821568701 8-21 22:21 S LANE AVE AND MANOTAK AVE 1050 TRAFFIC STOP
170821568700 8-21 22:21 9/BLUE 1050 TRAFFIC STOP
170821568695 8-21 22:19 36/OLSON 1050 TRAFFIC STOP
170821568681 8-21 22:18 ROOSEVELT BLVD AND TIMUQUANA RD 16 ROAD OBSTRUCTION
170821568640 8-21 22:17 5400 TURKEY CREEK RD 79T OBSCENE / THREAT CALL OR LETTER TELESERVE
170821568691 8-21 22:16 TINKERBELL LN AND S LANE AVE 1050 TRAFFIC STOP
170821568590 8-21 22:15 8200 E PRINCETON SQUARE BLVD 63 DISPUTE
170821568660 8-21 22:14 4200 SOUTHSIDE BLVD 63 DISPUTE
170821568687 8-21 22:13 E I10 EXPWY AND HAMMOND BLVD 4 53 TRAFFIC CRASH PERSON INJURED
170821568683 8-21 22:11 1300 PALAFOX 13 SUSPICIOUS PERSON
170821568680 8-21 22:11 700 N LINCOLN CT 0 88J ARMED ASSAULT JUST OCCURRED
170821568665 8-21 22:11 3200 UNIVERSITY BLVD 13 SUSPICIOUS PERSON
170821568679 8-21 22:10 POWERS AVE AND W UNIVERSITY BLVD 1050 TRAFFIC STOP
170821568678 8-21 22:10 S MC DUFF AVE AND ROOSEVELT BLVD 1050 TRAFFIC STOP
170821568612 8-21 22:10 12300 VISTA POINT CIR 14R VANDALISM RESIDENCE
170821568566 8-21 22:09 5300 WESTCHASE CT 22 DOMESTIC
170821568675 8-21 22:09 N I95 EXPWY AND LEM TURNER RD 13 SUSPICIOUS PERSON
170821568673 8-21 22:08 13/DANSON 1050 TRAFFIC STOP
170821568672 8-21 22:06 SOUTHSIDE BLVD AND DEERWOOD PARK BLVD 1050 TRAFFIC STOP
170821568666 8-21 22:06 500 E BAY ST 14 VANDALISM
170821568671 8-21 22:06 STOCKTON ST AND E I10 EXPWY 13 SUSPICIOUS PERSON
170821568658 8-21 22:06 2400 MONUMENT RD 13 SUSPICIOUS PERSON
170821568647 8-21 22:06 5300 MISSOURI AVE 63 DISPUTE
170821568669 8-21 22:05 NEW BERLIN RD AND W SAGO AVE 1050 TRAFFIC STOP
170821568641 8-21 22:05 4200 W MONCRIEF RD 2288 DOMESTIC DISPUTE WITH/ASSAULT
170821568668 8-21 22:05 S I295 EXPWY AND SAN JOSE BLVD 1050 TRAFFIC STOP
170821568661 8-21 22:05 3500 RAYFORD ST 63 DISPUTE
170821568662 8-21 22:02 NOR/VER 1050 TRAFFIC STOP
170821568659 8-21 22:01 W I10 EXPWY AND S I295 EXPWY 1050 TRAFFIC STOP
170821568655 8-21 22:01 4200 PHILIPS HWY 2 63 DISPUTE IMPAIRED/INTOXICATED
170821568656 8-21 22:00 9400 CULPEPER AVE 22 DOMESTIC
170821568653 8-21 21:58 800 SEABROOK PKWY 3 53 HIT AND RUN CRASH W/FIRE
170821568652 8-21 21:58 4100 N OLD MIDDLEBURG RD 0 23IJ ARMED ROBBERY INDIVIDUAL JUST OCCURRED
170821568620 8-21 21:58 2600 WYLENE ST 3 HIT AND RUN CRASH
170821568654 8-21 21:58 BROWARD RD AND VILLANOVA RD 1050 TRAFFIC STOP
170821568628 8-21 21:56 7200 SILVER LAKE TER 54 ILLEGALLY PARKED CAR
170821568629 8-21 21:56 400 CENTURY ST 22 DOMESTIC
170821568649 8-21 21:55 13500 BEACH BLVD 4 53 TRAFFIC CRASH PERSON INJURED
170821568627 8-21 21:52 400 CENTURY 21 DR 22 DOMESTIC
170821568643 8-21 21:51 2100 INWOOD TER 2288 DOMESTIC DISPUTE WITH/ASSAULT
170821568616 8-21 21:50 6600 GREENLAND CHASE BLVD 22 DOMESTIC
170821568610 8-21 21:49 100 S ACOSTA BRG 13 SUSPICIOUS PERSON
170821568636 8-21 21:48 N MAIN ST AND NEW BERLIN RD 1050 TRAFFIC STOP
170821568632 8-21 21:47 TIMUQUANA RD AND WESCONNETT BLVD 1050 TRAFFIC STOP
170821568515 8-21 21:46 300 LAURINA ST 6388 DISPUTE WITH ASSAULT
170821568631 8-21 21:46 12500 BEACH BLVD 38 TRAFFIC ASSIGNMENT
170821568509 8-21 21:46 8200 KONA AVE 64 NOISE COMPLAINT
170821568624 8-21 21:45 3200 HARTLEY RD 13 SUSPICIOUS PERSON
170821568622 8-21 21:44 PARK ST AND KING ST 13 SUSPICIOUS PERSON
170821568602 8-21 21:41 6100 W ARDISIA RD 22 DOMESTIC
170821568614 8-21 21:40 1900 JAMMES RD 50 FOUND/ABANDONED PROPERTY
170821568613 8-21 21:40 BROWARD RD AND BISCAYNE BLVD 1050 TRAFFIC STOP
170821568582 8-21 21:39 6100 COLLINS RD 27 MENTALLY ILL PERSON
170821568500 8-21 21:39 1000 S US 301 HWY 63 DISPUTE
170821568525 8-21 21:38 BLANDING BLVD AND 103RD ST 3 HIT AND RUN CRASH
170821568609 8-21 21:37 POST ST AND KING ST 13 SUSPICIOUS PERSON
170821568563 8-21 21:37 100 W 18TH ST 1066 CANCEL
170821568597 8-21 21:37 6100 E FORDHAM CIR 63 DISPUTE
170821568600 8-21 21:33 5400 ORTEGA FARMS BLVD 13 SUSPICIOUS PERSON
170821568599 8-21 21:33 N GATE PKWY AND W DEER LAKE DR 12 RECKLESS DRIVER
170821568598 8-21 21:33 3600 RAINES AVE 2 22 DOMESTIC DISTURBANCE
170821568568 8-21 21:32 2600 BONAVENTURE AVE 33 DISCHARGING OF FIREARM
170821568475 8-21 21:32 W WINDING VINE DR AND PINE SPRINGS LN 13 SUSPICIOUS PERSON
170821568587 8-21 21:31 2000 N MAIN ST 76 ASSIST OTHER AGENCY
170821568511 8-21 21:31 1500 S LANE AVE 63 DISPUTE
170821568591 8-21 21:30 DU-CLAY RD AND BLANDING BLVD 1050 TRAFFIC STOP
170821568589 8-21 21:29 PHILIPS HWY AND ST AUGUSTINE RD 1050 TRAFFIC STOP
170821568588 8-21 21:29 500 PARK ST 13 SUSPICIOUS PERSON
170821568573 8-21 21:29 100 E 43RD ST 19 ANIMAL INVESTIGATION
170821568557 8-21 21:29 1600 WILCOX ST 13 SUSPICIOUS PERSON
170821568586 8-21 21:28 UNIVERSITY BLVD AND ARLINGTON RD 13 SUSPICIOUS PERSON
170821568585 8-21 21:28 3700 HOLLY GROVE AVE 13 SUSPICIOUS PERSON
170821568584 8-21 21:28 DUNN AVE AND HARTS RD 1050 TRAFFIC STOP
170821568561 8-21 21:27 2500 SUNRISE RIDGE LN 63 DISPUTE
170821568570 8-21 21:27 1200 LABELLE ST 22 DOMESTIC
170821568581 8-21 21:26 DUNN AVE AND HARTS RD 96 ASSIST MOTORIST
170821568550 8-21 21:26 7500 WHEAT RD 1066 CANCEL
170821568580 8-21 21:25 3800 W UNIVERSITY BLVD 13 SUSPICIOUS PERSON
170821568508 8-21 21:25 5300 WESTCHASE CT 63 DISPUTE
170821568576 8-21 21:24 4200 CONFEDERATE POINT RD 23I ROBBERY INDIVIDUAL
170821568517 8-21 21:24 7900 E BAYMEADOWS CIR 73 DRUG INVESTIGATION
170821568459 8-21 21:23 200 RIVER HILLS DR 63 DISPUTE
170821568553 8-21 21:23 10200 W BEAVER ST 63 DISPUTE
170821568423 8-21 21:23 9600 ATLANTIC BLVD 63 DISPUTE
170821568567 8-21 21:22 S BROOKVIEW DR AND CORTEZ RD 13 SUSPICIOUS PERSON
170821568575 8-21 21:22 SAN JOSE BLVD AND LORETTO RD 1050 TRAFFIC STOP
170821568572 8-21 21:22 6900 N LYSTER CIR 63 DISPUTE
170821568569 8-21 21:20 3200 PHILIPS HWY 13 SUSPICIOUS PERSON
170821568562 8-21 21:17 NORMANDY BLVD AND PARRISH CEMETERY RD 1050 TRAFFIC STOP
170821568560 8-21 21:17 600 S LINCOLN CT 21RP BURGLARY RESIDENCE IN PROGRESS
170821568504 8-21 21:16 NEW KINGS RD AND N EDGEWOOD AVE 4 AUTO CRASH
170821568441 8-21 21:13 1100 W 4TH ST 64 NOISE COMPLAINT
170821568549 8-21 21:13 N I95 EXPWY AND W 8TH ST 96 ASSIST MOTORIST
170821568476 8-21 21:13 DANSON ST AND W 18TH ST 2 IMPAIRED/INTOXICATED
170821568518 8-21 21:13 S LANE AVE AND WILSON BLVD 56 JUVENILE COMPLAINT
170821568555 8-21 21:13 WALLER ST AND S MC DUFF AVE 1050 TRAFFIC STOP
170821568533 8-21 21:13 3700 SOUTHSIDE BLVD 63 DISPUTE
170821568516 8-21 21:12 2400 MONUMENT RD 63 DISPUTE
170821568477 8-21 21:09 SHADY OAK DR AND ROGERO RD 22 DOMESTIC
170821568547 8-21 21:08 E 43RD ST AND N MAIN ST 1050 TRAFFIC STOP
170821568546 8-21 21:08 OLD ST AUGUSTINE RD AND HOOD LANDING RD 16 ROAD OBSTRUCTION
170821568545 8-21 21:07 PARK ST AND LOMAX ST 1050 TRAFFIC STOP
170821568544 8-21 21:07 W UNIVERSITY BLVD AND POWERS AVE 1050 TRAFFIC STOP
170821568542 8-21 21:07 100 W UNION ST 63 DISPUTE
170821568420 8-21 21:07 1200 MC CONIHE ST 9T THEFT (TELESERVE)
170821568540 8-21 21:05 700 N. MAIN ST 73 DRUG INVESTIGATION
170821568523 8-21 21:05 2300 PHILIPS HWY 61 FIGHT
170821568534 8-21 21:03 6000 LAKE GRAY BLVD 13 SUSPICIOUS PERSON
170821568535 8-21 21:03 PHILIPS HWY AND BOWDEN RD 1050 TRAFFIC STOP
170821568531 8-21 21:01 13900 WHEELING LN 5388 ASSAULT INVOLVING INJURY
170821568528 8-21 21:01 1600 W 45TH ST 64 NOISE COMPLAINT
170821568529 8-21 21:00 700 RUSHING ST 50 FOUND/ABANDONED PROPERTY
170821568402 8-21 20:59 2300 N MYRTLE AVE 10R VEHICLE THEFT RECOVERY
170821568524 8-21 20:58 MERRILL RD AND UNIVERSITY BLVD 1050 TRAFFIC STOP
170821568514 8-21 20:58 BANSHEE AVE AND COMMODORE DR 33 DISCHARGING OF FIREARM
170821568522 8-21 20:57 ACORN/BEAV 1050 TRAFFIC STOP
170821568520 8-21 20:57 5600 CAGLE RD 1050 TRAFFIC STOP
170821568512 8-21 20:55 3500 S ST JOHNS BLUFF RD 16 ROAD OBSTRUCTION
170821568513 8-21 20:55 1700 N MAIN ST 76 ASSIST OTHER AGENCY
170821568506 8-21 20:55 3100 EMERSON ST 9 THEFT
170821568507 8-21 20:51 OLD BAYMEADOWS RD AND BAYMEADOWS RD 1050 TRAFFIC STOP
170821568505 8-21 20:51 MORG/RUSHING 13 SUSPICIOUS PERSON
170821568446 8-21 20:50 1000 CALIENTE DR 2 22 DOMESTIC DISTURBANCE
170821568503 8-21 20:48 N I295 EXPWY AND S SR9B EXPWY 96 ASSIST MOTORIST
170821568392 8-21 20:48 SAN MATEO AVE AND ATLANTIC BLVD 91 TRAFFIC LIGHT/RR CROSSING MALFUNCTION
170821568501 8-21 20:48 NORMANDY BLVD AND S LANE AVE 1050 TRAFFIC STOP
170821568496 8-21 20:47 BEACH BLVD AND SANS PAREIL ST 1050 TRAFFIC STOP
170821568495 8-21 20:47 EDG/AVEB 1050 TRAFFIC STOP
170821568491 8-21 20:46 9100 4TH AVE 60 SUICIDE OR ATTEMPT
170821568493 8-21 20:45 BARN/FIRST 13 SUSPICIOUS PERSON
170821568490 8-21 20:45 3700 PHILIPS HWY 1050 TRAFFIC STOP
170821568487 8-21 20:44 FAIRLANE DR AND PHEASANT DR 22 DOMESTIC
170821568455 8-21 20:43 SAN JUAN AVE AND LAKE SHORE BLVD 13 SUSPICIOUS PERSON
170821568480 8-21 20:43 S I95 EXPWY AND W I10 EXPWY 96 ASSIST MOTORIST
170821568486 8-21 20:43 E 27TH ST AND WALNUT ST 1050 TRAFFIC STOP
170821568483 8-21 20:41 1000 N LANE AVE 9J THEFT JUST OCCURRED
170821568481 8-21 20:41 GROTH/BLU 1050 TRAFFIC STOP
170821568454 8-21 20:40 12800 E LONGVIEW DR 19 ANIMAL INVESTIGATION
170821568478 8-21 20:39 PHILIPS HWY AND CLINTON AVE 1050 TRAFFIC STOP
170821568472 8-21 20:39 12600 PLUMMER GRANT RD 9T THEFT (TELESERVE)
170821568422 8-21 20:39 7600 BLANDING BLVD 9T THEFT (TELESERVE)
170821568463 8-21 20:39 1300 W 21ST ST 3 HIT AND RUN CRASH
170821568379 8-21 20:38 1000 UNIVERSITY BLVD 63 DISPUTE
170821568471 8-21 20:38 1900 OAK WATER DR 63 DISPUTE
170821568473 8-21 20:38 700 N LINCOLN CT 1050 TRAFFIC STOP
170821568469 8-21 20:36 ATLANTIC BLVD AND ACME ST 1050 TRAFFIC STOP
170821568467 8-21 20:35 ATLANTIC BLVD AND S ST JOHNS BLUFF RD 1050 TRAFFIC STOP
170821568461 8-21 20:35 100 W INDEPENDENT DR 9 THEFT
170821568464 8-21 20:34 SOUTHSIDE BLVD AND BAYMEADOWS RD 19 ANIMAL INVESTIGATION
170821568465 8-21 20:34 S HOOD RD AND LOSCO RD 1050 TRAFFIC STOP
170821568374 8-21 20:33 9300 103RD ST 63 DISPUTE
170821568462 8-21 20:32 13/FAIRFAX 1050 TRAFFIC STOP
170821568429 8-21 20:32 8000 MC GLOTHLIN ST 88 ASSAULT
170821568395 8-21 20:31 7600 EATON AVE 8 MISSING PERSON
170821568418 8-21 20:31 5600 BRYNER DR 2 63 DISPUTE IMPAIRED/INTOXICATED
170821568444 8-21 20:31 5400 S SHADY PINE ST 63 DISPUTE
170821568427 8-21 20:29 8400 BUTTERCUP ST 22 DOMESTIC
170821568457 8-21 20:29 BLANDING BLVD AND YOUNGERMAN CIR 13 SUSPICIOUS PERSON
170821568456 8-21 20:28 S LANE AVE AND NORMANDY BLVD 13 SUSPICIOUS PERSON
170821568443 8-21 20:28 3100 BREVE DR 22 DOMESTIC
170821568445 8-21 20:27 3600 RING LN 61 FIGHT
170821568406 8-21 20:26 2600 CORTEZ RD 63 DISPUTE
170821568449 8-21 20:25 I295/ALTA 22 DOMESTIC
170821568432 8-21 20:25 FAIR ST AND IRVINGTON AVE 13 SUSPICIOUS PERSON
170821568448 8-21 20:24 W UNIVERSITY BLVD AND S BARNES RD 4 53 TRAFFIC CRASH PERSON INJURED
170821568185 8-21 20:24 5900 TOWNSEND RD 9T THEFT (TELESERVE)
170821568442 8-21 20:22 HIRSCH AVE AND PARENTAL HOME RD 1050 TRAFFIC STOP
170821568440 8-21 20:22 400 W 8TH ST 13 SUSPICIOUS PERSON
170821568399 8-21 20:21 5400 AMAZON AVE 1066 CANCEL
170821568439 8-21 20:21 MERRILL RD AND TOWNSEND BLVD 1050 TRAFFIC STOP
170821568438 8-21 20:21 ST AUGUSTINE RD AND SESSIONS LN 1050 TRAFFIC STOP
170821568411 8-21 20:20 1600 HAMMOND BLVD 63 DISPUTE
170821568437 8-21 20:20 15/GRUNTHAL 1050 TRAFFIC STOP
170821568435 8-21 20:20 200 W UNION ST 76 ASSIST OTHER AGENCY
170821568433 8-21 20:19 9200 LEM TURNER RD 22 DOMESTIC
170821568428 8-21 20:18 1900 ERLINE DR 63 DISPUTE
170821568415 8-21 20:16 10300 N SHELBY CREEK RD 2288 DOMESTIC DISPUTE WITH/ASSAULT
170821568424 8-21 20:15 S I295 EXPWY AND ALTA DR 13 SUSPICIOUS PERSON
170821568353 8-21 20:15 5800 OLIVER ST 50 FOUND/ABANDONED PROPERTY
170821568421 8-21 20:14 3600 STANLEY ST 88 ASSAULT
170821568349 8-21 20:13 4300 CONFEDERATE POINT RD 14C VANDALISM CONVEYANCE
170821568401 8-21 20:12 600 S MC DUFF AVE 63 DISPUTE
170821568416 8-21 20:11 9500 ARLINGTON EXPWY 96 ASSIST MOTORIST
170821568414 8-21 20:09 PHILIPS HWY AND YORK ST 1050 TRAFFIC STOP
170821568412 8-21 20:09 5700 BLANDING BLVD 10R VEHICLE THEFT RECOVERY
170821568410 8-21 20:08 2500 EISNER DR 22 DOMESTIC
170821568407 8-21 20:07 4700 S LANE AVE 1066 CANCEL
170821568403 8-21 20:05 RIVERSIDE AVE AND JACKSON ST 13 SUSPICIOUS PERSON
170821568405 8-21 20:05 BLANDING BLVD AND 105TH ST 10R VEHICLE THEFT RECOVERY
170821568404 8-21 20:05 W COLE RD AND WOODLAND DR 1050 TRAFFIC STOP
170821568398 8-21 20:04 N JACKSON AVE AND OKLAHOMA ST 61 FIGHT
170821568400 8-21 20:04 900 S EDGEWOOD AVE 1 IMPAIRED/DRUNK DRIVER
170821568391 8-21 20:03 8000 HARE AVE 3 HIT AND RUN CRASH
170821568396 8-21 20:03 MLK/I95 1050 TRAFFIC STOP
170821568394 8-21 20:03 6000 YOUNGERMAN CIR 13 SUSPICIOUS PERSON
170821568393 8-21 20:03 SOUTHSIDE BLVD AND DEER LAKE CT 1050 TRAFFIC STOP
170821568339 8-21 20:01 9600 PRIORY AVE 63 DISPUTE
170821568388 8-21 20:01 KINGS RD AND N MYRTLE AVE 1050 TRAFFIC STOP
170821568387 8-21 20:01 8200 KONA AVE 2288 DOMESTIC DISPUTE WITH/ASSAULT
170821568371 8-21 20:00 2000 W HOVINGTON CIR 22 DOMESTIC
170821568370 8-21 19:59 12200 ATLANTIC BLVD 54 ILLEGALLY PARKED CAR
170821568330 8-21 19:59 14000 BEACH BLVD 19 ANIMAL INVESTIGATION
170821568343 8-21 19:59 13800 SEA ANCHOR LN 22 DOMESTIC
170821568385 8-21 19:58 800 HAMMOND BLVD 38 TRAFFIC ASSIGNMENT
170821568384 8-21 19:56 EMERSON/PHI 1050 TRAFFIC STOP
170821568309 8-21 19:55 5500 CLIFF ST 27 MENTALLY ILL PERSON
170821568347 8-21 19:53 1200 BROOKWOOD FOREST BLVD 63 DISPUTE
170821568378 8-21 19:53 200 E STATE ST 2 63 DISPUTE IMPAIRED/INTOXICATED
170821568380 8-21 19:53 W 8TH ST AND N MYRTLE AVE 1050 TRAFFIC STOP
170821568372 8-21 19:52 700 W 41ST ST 13 SUSPICIOUS PERSON
170821568375 8-21 19:52 3000 STARRATT RD 76 ASSIST OTHER AGENCY
170821568369 8-21 19:51 1600 CHERRY ST 1066 CANCEL
170821568377 8-21 19:51 10700 ANDERS BLVD 0 88J ARMED ASSAULT JUST OCCURRED
170821568321 8-21 19:49 9400 ATLANTIC BLVD 4 AUTO CRASH
170821568368 8-21 19:49 11200 E LAKE MANDARIN CIR 16 ROAD OBSTRUCTION
170821568350 8-21 19:48 300 W 21ST ST 63 DISPUTE
170821568240 8-21 19:46 5800 E NORDE DR 63 DISPUTE
170821568342 8-21 19:45 1900 KINGS RD 63 DISPUTE
170821568366 8-21 19:45 10600 DODD RD 1066 CANCEL
170821568367 8-21 19:45 N EDGEWOOD AVE AND TABERNACLE LN 1050 TRAFFIC STOP
170821568364 8-21 19:44 PHILIPS HWY AND EMERSON ST 1050 TRAFFIC STOP
170821568359 8-21 19:41 1300 W 23RD ST 63 DISPUTE
170821568352 8-21 19:41 100 N PEARL ST 63 DISPUTE
170821568354 8-21 19:40 4800 GATE PKWY 4 AUTO CRASH
170821568338 8-21 19:39 11600 MOSSY WAY 16 ROAD OBSTRUCTION
170821568333 8-21 19:38 6000 DAVON ST 13 SUSPICIOUS PERSON
170821568348 8-21 19:38 W COLE RD AND DESOTO ST 1050 TRAFFIC STOP
170821568341 8-21 19:37 700 N VILLAGE CENTER DR 63 DISPUTE
170821568320 8-21 19:36 13000 N NOTRE DAME LN 13 SUSPICIOUS PERSON
170821568346 8-21 19:36 100 N BUCKMAN BRG 16 ROAD OBSTRUCTION
170821568345 8-21 19:35 700 VENUS-MARS CT 10R VEHICLE THEFT RECOVERY
170821568328 8-21 19:34 5100 SEABOARD AVE 13 SUSPICIOUS PERSON
170821568318 8-21 19:34 3600 RIBAULT SCENIC DR 21CJ BURGLARY CONVEYANCE JUST OCCURRED
170821568337 8-21 19:33 1100 LAKE SHORE BLVD 0 63 ARMED DISPUTE
170821568340 8-21 19:33 2300 PHILIPS 1050 TRAFFIC STOP
170821568327 8-21 19:32 6100 STETSON RD 63 DISPUTE
170821568334 8-21 19:31 WILSON BLVD AND BLANDING BLVD 1050 TRAFFIC STOP
170821568329 8-21 19:30 5800 S BARNES RD 21C BURGLARY CONVEYANCE
170821568332 8-21 19:30 SAN JUAN AVE AND RETAW ST 1050 TRAFFIC STOP
170821568314 8-21 19:29 7600 HARE AVE 2 63 DISPUTE IMPAIRED/INTOXICATED
170821568310 8-21 19:29 8200 KONA AVE 63 DISPUTE
170821568324 8-21 19:28 13800 N MAIN ST 5388 ASSAULT INVOLVING INJURY
170821568291 8-21 19:25 2300 ERNEST ST 14CT VANDALISM CONVEYANCE TELESERVE
170821568319 8-21 19:25 PARENTAL HOME RD AND HOGAN RD 1050 TRAFFIC STOP
170821568209 8-21 19:25 2100 JAMES HALL DR 64 NOISE COMPLAINT
170821568312 8-21 19:24 3900 FOX MEADOW LN 63 DISPUTE
170821568315 8-21 19:23 KELLOW DR AND S UNIVERSITY BLVD 76 ASSIST OTHER AGENCY
170821568281 8-21 19:22 11800 E WATER BLUFF LN 4 AUTO CRASH
170821568313 8-21 19:22 ST AUGUSTINE RD AND CALLAHAN ST 1050 TRAFFIC STOP
170821568286 8-21 19:21 4600 ROANOKE BLVD 76 ASSIST OTHER AGENCY
170821568266 8-21 19:21 2000 JAMMES RD 6388 DISPUTE WITH ASSAULT
170821568246 8-21 19:21 5300 DUGDALE RD 22 DOMESTIC
170821568311 8-21 19:21 1700 SAN MARCO BLVD 64 NOISE COMPLAINT
170821568239 8-21 19:20 1900 JAMMES RD 0 63 ARMED DISPUTE
170821568275 8-21 19:18 3600 S KERNAN BLVD 21R BURGLARY RESIDENCE
170821568267 8-21 19:18 1400 W 18TH ST 76 ASSIST OTHER AGENCY
170821568303 8-21 19:17 1100 E 9TH ST 13 SUSPICIOUS PERSON
170821568300 8-21 19:16 10800 HARTS RD 63 DISPUTE
170821568299 8-21 19:15 100 W UNION ST 63 DISPUTE
170821568297 8-21 19:14 10900 BURNT MILL RD 64 NOISE COMPLAINT
170821568298 8-21 19:13 N I95 EXPWY AND MAX LEGGETT PKWY 1050 TRAFFIC STOP
170821568230 8-21 19:12 NEW BERLIN RD AND ZOO PKWY 38 TRAFFIC ASSIGNMENT
170821568157 8-21 19:12 2800 JACOB AVE 63 DISPUTE
170821568292 8-21 19:10 7800 N BLANK DR 3388 DISCHARGING FIREARM AT PERSON
170821568273 8-21 19:09 1800 W EDGEWOOD AVE 76 ASSIST OTHER AGENCY
170821568278 8-21 19:08 1200 STEELE CT 76 ASSIST OTHER AGENCY
170821568290 8-21 19:08 ARLINGTON EXPWY AND N ARLINGTON RD 12 RECKLESS DRIVER
170821568272 8-21 19:07 11100 COPPER HILL DR 0 22 DOMESTIC DISTURBANCE W/WEAPON
170821568288 8-21 19:06 900 W JORICK CT 50 FOUND/ABANDONED PROPERTY
170821568287 8-21 19:06 2700 MONUMENT RD 63 DISPUTE
170821568285 8-21 19:05 8800 SOUTHSIDE BLVD 16 ROAD OBSTRUCTION
170821568284 8-21 19:05 W 13TH ST AND N DAVIS ST 1050 TRAFFIC STOP
170821568253 8-21 19:05 13900 BENTON ST 19 ANIMAL INVESTIGATION
170821568245 8-21 19:05 BLANDING BLVD AND 105TH ST 3 HIT AND RUN CRASH
170821568274 8-21 19:04 3600 HONEYDEW LN 63 DISPUTE
170821568276 8-21 19:04 14900 MAX LEGGETT PKWY 37 UNVERIFIED 911 CALL
170821568279 8-21 19:03 S I95 EXPWY AND N I295 EXPWY 16 ROAD OBSTRUCTION
170821568257 8-21 19:03 1900 CORPORATE SQUARE BLVD 63 DISPUTE
170821568252 8-21 19:00 HECKSCHER DR AND E NEW BERLIN RD 91 TRAFFIC LIGHT/RR CROSSING MALFUNCTION
170821568256 8-21 19:00 5900 MERRILL RD 63 DISPUTE
170821568176 8-21 18:59 1800 N DAVIS ST 0 23I ARMED ROBBERY INDIVIDUAL
170821568233 8-21 18:59 10900 COPPER HILL DR 63 DISPUTE
170821568264 8-21 18:58 5100 NORWOOD AVE 63 DISPUTE
170821568262 8-21 18:58 1000 SPEARING ST 1066 CANCEL
170821568170 8-21 18:57 1500 GLENGARRY RD 95ID IDENTITY THEFT
170821568265 8-21 18:57 2800 SOPHIA ST 7 DEAD PERSON
170821568263 8-21 18:56 EDG/KEWKINGS 96 ASSIST MOTORIST
170821568259 8-21 18:56 500 WORCESTER CT 76 ASSIST OTHER AGENCY
170821568249 8-21 18:56 6700 ST AUGUSTINE RD 54 ILLEGALLY PARKED CAR
170821568260 8-21 18:56 LAKE SHORE BLVD AND ASTRAL ST 1050 TRAFFIC STOP
170821568254 8-21 18:55 6700 PATANIA WAY 27 MENTALLY ILL PERSON
170821568242 8-21 18:55 1100 LAKE SHORE BLVD 0 63 ARMED DISPUTE
170821568234 8-21 18:53 300 DRUID ST 80 PROSTITUTION (ONLY)
170821568248 8-21 18:52 2800 RUTH DR 73 DRUG INVESTIGATION
170821568251 8-21 18:52 4200 ROOSEVELT BLVD 1050 TRAFFIC STOP
170821568198 8-21 18:51 W EDGEWOOD AVE AND AVENUE B 63 DISPUTE
170821568235 8-21 18:46 103RD ST AND BLANDING BLVD 4 53 TRAFFIC CRASH PERSON INJURED
170821568238 8-21 18:46 100 8TH ST 12 RECKLESS DRIVER
170821568237 8-21 18:46 N LINCOLN CT AND N DAVIS ST 1050 TRAFFIC STOP
170821568236 8-21 18:46 103/BLAND 4 53 TRAFFIC CRASH PERSON INJURED
170821568151 8-21 18:45 7600 S JANA LN 2288 DOMESTIC DISPUTE WITH/ASSAULT
170821568224 8-21 18:45 13300 LANIER RD 56 JUVENILE COMPLAINT
170821568207 8-21 18:44 E I10 EXPWY AND S CHAFFEE RD 16 ROAD OBSTRUCTION
170821568225 8-21 18:44 700 VENUS-MARS CT 63 DISPUTE
170821568160 8-21 18:43 11900 BEACH BLVD 13 SUSPICIOUS PERSON
170821568217 8-21 18:42 8300 NORMANDY BLVD 9J THEFT JUST OCCURRED
170821568216 8-21 18:42 7000 NORMANDY BLVD 1 IMPAIRED/DRUNK DRIVER
170821568220 8-21 18:42 8300 PEPPERWOOD DR 22 DOMESTIC
170821568223 8-21 18:40 8100 MARION ST 2288 DOMESTIC DISPUTE WITH/ASSAULT
170821568178 8-21 18:38 2500 VIBURNUM CT 79 OBSCENE / THREAT CALL OR LETTER
170821568222 8-21 18:36 NEW BERLIN RD AND DAYLIGHT TRL 13 SUSPICIOUS PERSON
170821568219 8-21 18:35 VAN WERT AVE AND WALSH ST 13 SUSPICIOUS PERSON
170821568204 8-21 18:33 10600 MONACO DR 27 MENTALLY ILL PERSON
170821568203 8-21 18:33 9300 CRAVEN RD 96 ASSIST MOTORIST
170821568192 8-21 18:33 8200 DIX ELLIS TRL 63 DISPUTE
170821568123 8-21 18:32 6600 BENNETT RD 21CT BURGLARY CONVEYANCE TELESERVE
170821568201 8-21 18:32 4700 LEXINGTON AVE 0 63 ARMED DISPUTE
170821568212 8-21 18:31 BEACH BLVD AND HART EXPWY 96 ASSIST MOTORIST
170821568195 8-21 18:30 TROUT RIVER BLVD AND MONCRIEF-DINSMORE RD 11 ABANDONED VEHICLE
170821568210 8-21 18:30 8600 BEACH BLVD 4 AUTO CRASH
170821568164 8-21 18:28 10900 SAN JOSE BLVD 63 DISPUTE
170821568206 8-21 18:26 4200 W LEONARD CIR 1050 TRAFFIC STOP
170821568205 8-21 18:26 VENTURE PL AND SAN JOSE BLVD 4 AUTO CRASH
170821568202 8-21 18:25 N I295 EXPWY AND SAN JOSE BLVD 1050 TRAFFIC STOP
170821568199 8-21 18:25 2700 E FOX CREEK DR 21C BURGLARY CONVEYANCE
170821568194 8-21 18:24 4400 FLINTSHIRE RD 22 DOMESTIC
170821568129 8-21 18:23 PHILIPS HWY AND S I95 EXPWY 1066 CANCEL
170821568196 8-21 18:22 DUNN AVE AND ARMSDALE RD 1050 TRAFFIC STOP
170821568191 8-21 18:21 6900 BERNAY AVE 2 IMPAIRED/INTOXICATED
170821568193 8-21 18:20 HAINES ST AND HAINESEXIT ARLX RP 1050 TRAFFIC STOP
170821568190 8-21 18:19 I295/GATE 96 ASSIST MOTORIST
170821568187 8-21 18:17 700 N LINCOLN CT 1050 TRAFFIC STOP
170821568146 8-21 18:16 W BAYMEADOWS WAY AND PHILIPS HWY 4 AUTO CRASH
170821568030 8-21 18:16 7600 BLANDING BLVD 4 AUTO CRASH
170821568186 8-21 18:16 ATLANTIC BLVD AND KING RD 54 ILLEGALLY PARKED CAR
170821568156 8-21 18:15 10400 SAN JOSE BLVD 13 SUSPICIOUS PERSON
170821568153 8-21 18:15 7600 HARE AVE 1066 CANCEL
170821568179 8-21 18:14 6800 WILSON BLVD 9J THEFT JUST OCCURRED
170821568182 8-21 18:14 FLORIDA AVE AND E 3RD ST 1050 TRAFFIC STOP
170821568124 8-21 18:13 3400 PHILIPS HWY 37 UNVERIFIED 911 CALL
170821568155 8-21 18:12 KING ST AND W BEAVER ST 10R VEHICLE THEFT RECOVERY
170821568174 8-21 18:12 2400 JAMMES RD 0 88J ARMED ASSAULT JUST OCCURRED
170821568168 8-21 18:12 W I10 EXPWY AND STOCKTON ST 16 ROAD OBSTRUCTION
170821568175 8-21 18:11 BEACH BLVD AND GROVE PARK BLVD 1050 TRAFFIC STOP
170821568142 8-21 18:10 6500 MERRILL RD 22 DOMESTIC
170821568149 8-21 18:07 4400 KETTERING CT 4 AUTO CRASH
170821568106 8-21 18:07 8300 FREE AVE 63 DISPUTE
170821568165 8-21 18:06 103RD ST WB AT 23 16 ROAD OBSTRUCTION
170821568158 8-21 18:04 ARLINGTON EXPWY AND UNIVERSITY BLVD 26C CARDIAC AED
170821568163 8-21 18:04 4100 FIRESTONE RD 1050 TRAFFIC STOP
170821568161 8-21 18:03 4200 BELFORT RD 27 MENTALLY ILL PERSON
170821568154 8-21 18:01 8200 W BEAVER ST 63 DISPUTE
170821568087 8-21 18:01 4500 BLACKBURN ST 22 DOMESTIC
170821567958 8-21 18:00 5500 W NORDE DR 21R BURGLARY RESIDENCE
170821568152 8-21 18:00 2200 DUNN AVE 63 DISPUTE